ŚNIADANIOWY BIEG MORSÓW O PUCHAR BURMISTRZA MIELNA – 5KM

Organizator/ Organizer:
Gmina Mielno, Centrum Kultury w Mielnie – Biuro Organizacyjne Zlotu Morsów
Data/ Date:
2018-02-10
Miejsce/ Place:
Mielno
Dystans/ Distance:
5 km
Zgłoszonych/ Registered:
177
Wystartowało/ Started:
157
Nie ukończyło/ Not finished:
1
Ukończyło/ Finished:
156
Na trasie/ On track:
0

Klasyfikacja/ Classiffication: M-40

Wyniki nieoficjalne !!!
Pełne wyniki/ Full Results : PDF | CSV
Wyniki uproszczone/ Simple results : PDF | PDF2 | CSV
 
Klasyfikacje w punktach pomiarowych/ Classification for time points: Meta
Klasyfikacje wg kategorii/ Classification by category: Wszyscy | K-Open | M-Open | K-13 | M-13 | K-18 | M-18 | K-30 | M-30 | K-40 | M-40 | K-50 | M-50 | K-60 | M-60 | K-70+ | M-70+

Msc/ RnkZawodnik/ NameNumer/ BibKlub/ TeamMiejscowość/ CityKraj/ CountryKategoria/ CategoryMkat/ CatRnkK/M/ W/MCzas
netto
5km
Różn/ GapTempo
min/km
Tempo
km/h
     
1CHMIEL Piotr 136NURT MOSTKIMOSTKIM-401M 200:18:15.30 3:3916.4
2MALEC Mariusz 65STARGARDZKI KLUB MORSÓW MIEDWIANIESTARGARDM-402M 600:21:20.00+00:03:044:1614.1
3STEFANOWICZ Paweł 109RUNNING ORLEN TEAMKOSZALINM-403M 700:21:22.40+00:03:074:1614
4SZCZEPANEK Janusz 110SZARE MORSYJASTRZĘBIE-ZDRÓJM-404M 1100:22:25.70+00:04:104:2913.4
5SAWICKI Adam 134MARATONKIPROSTKIM-405M 1300:22:39.15+00:04:234:3113.2
6WOLIŃSKI Benedykt 174MORSY LODOŁAMACZSKIERNIEWICEM-406M 1400:22:39.65+00:04:244:3113.2
7MICHALIK Grzegorz 126ZAMORSOWANI CZĘSTOCHOWACZĘSTOCHOWAM-407M 1900:23:02.40+00:04:474:3613
8JEDRYCHA Mariusz 169MORSY LODOŁAMACZSKIERNIEWICEM-408M 2000:23:11.50+00:04:564:3812.9
9PICK Tomasz 85MK KOSZALINKOSZALINM-409M 2100:23:24.10+00:05:084:4012.8
10LACH Krzysztof 58KLIMA WRZEŚNIAWRZEŚNIAM-4010M 2300:23:38.30+00:05:234:4312.7
11KOPYŚCIAŃSKI Piotr 48LEGNICKIE MORSYRUSKOM-4011M 2400:23:42.55+00:05:274:4412.6
12RADULEWICZ Sebastian 153MORSY LEGNICARASZÓWKAM-4012M 2500:23:43.15+00:05:274:4412.6
13ŚWITA Jarosław 114FORMA WODZISŁAW ŚL.WODZISŁAW ŚL.M-4013M 2800:23:54.30+00:05:394:4712.5
14KRZEMIŃSKI Adam 54RUNNERS TEAM KĘTRZYNKĘTRZYNM-4014M 2900:23:58.00+00:05:424:4712.5
15SZYCIK Waldemar 131MARATONKIGRAJEWOM-4015M 3700:24:20.25+00:06:044:5212.3
16MYSZKA Marcin 133MARATONKIGRAJEWOM-4016M 4100:24:41.85+00:06:264:5612.1
17ZBROSZCZYK Jerzy 173MIEDWIENIESTARGARDM-4017M 4700:25:45.65+00:07:305:0911.6
18MATCZAK Jacek 160M-4018M 4900:25:55.90+00:07:405:1111.6
19RĘDZIA Tomasz 167ŻORYM-4019M 5100:26:29.50+00:08:145:1811.3
20WOŹNY Rafał 121BAKSTERZYBRODNICAM-4020M 5300:26:44.65+00:08:295:2111.2
21NOWAK Jarosław 175MORSY LODOŁAMACZCHODZIEŻM-4021M 5500:26:50.45+00:08:355:2211.2
22MOŃKA Andrzej 141ZMORSOWANI CZĘSTOCHOWACZĘSTOCHOWAM-4022M 5600:26:56.20+00:08:405:2311.1
23KANIAK Marcin 151MORSYBORÓW NIEMODLINSKICHNIEMODLINM-4023M 5700:27:03.20+00:08:475:2411.1
24KANIEWSKI Grzegorz 127KLIMA MORSY WRZEŚNIAMIŁOSAŁAWM-4024M 5800:27:13.30+00:08:585:2611
25RAJSKI Marcin 176KS AMBER MORSY TOMASZÓW MAZOWIECKITOMASZÓW MAZOWIECKIM-4025M 5900:27:32.65+00:09:175:3010.9
26RODEWALD Ryszard 96JELENIA GÓRAM-4026M 6100:27:37.95+00:09:225:3110.9
27GALIŃSKI Paweł 24KS AMBER MORSY TOMASZÓW MAZOWIECKITOMASZÓW MAZOWIECKIM-4027M 6300:28:17.20+00:10:015:3910.6
28KAWĘCKI Bogdan 40POLAR BARTOSZYCEBARTOSZYCEM-4028M 6400:28:33.50+00:10:185:4210.5
29LESISZ Michał 61KOSZALINM-4029M 6600:28:43.10+00:10:275:4410.4
30PAKOWSKI Robert 79KS AMBER MORSY TOMASZÓW MAZOWIECKITOMASZÓW MAZOWIECKIM-4030M 6700:28:46.55+00:10:315:4510.4
31GWOŹDZIOWSKI Marcin 31KKM KALORYFERTARNOBRZEGM-4031M 6900:29:01.80+00:10:465:4810.3
32KOWALCZYK Adam 158KLIMA MORSY WRZEŚNIADZIERŻNICAM-4032M 7400:30:27.10+00:12:116:059.9
33DUDEK Krzysztof 162STRZEGOMSKA DWUNASTKAJAROSŁAWM-4033M 7500:30:35.55+00:12:206:079.8
34DZIEŻA Robert 18MORSY LUBINLUBINM-4034M 7700:31:36.05+00:13:206:199.5
35KUMOSZ Mirosław 159MORSY BOLESŁAWIECBOLESŁAWIECM-4035M 7800:31:55.25+00:13:396:239.4
36SKAŁA Rafał 146JURAJSKIE MORSYZAWIERCIEM-4036M 7900:32:08.55+00:13:536:259.3
37PRZYBYŁO Sławek 93STRZEGOMSKA DWUNASTKASTRZEGOMM-4037M 8200:33:32.25+00:15:166:428.9
38FEDYCZKOWSKI Edward 21STRZEGOMSKA DWUNASTKASTRZEGOMM-4038M 8300:33:34.10+00:15:186:428.9
39KUCHARCZYK Robert 55MORSY GRYFICEGRYFICEM-4039M 8400:33:49.10+00:15:336:458.9
40KUJAWA Jarek 56KLUB MORSÓW ESKIMO GORZÓW -KŁODAWAGORZÓW WLKPM-4040M 8600:34:06.00+00:15:506:498.8
Znaleziono 40 wynik(ów)